Regional Weather Roundup
Issued by NWS

Home | Current Version | Previous Version | Graphics & Text | Print | Product List | Glossary On
Versions: 1 2 3 4 5 6 7 8 9 10 11 12 13 14 15 16 17 18 19 20 21 22 23 24 25 26 27
000
ASUS45 KBOU 061607
RWRCO

WEATHER ROUNDUP FOR COLORADO
NATIONAL WEATHER SERVICE DENVER/BOULDER CO
1000 AM MDT FRI MAY 06 2016

NOTE: "FAIR" INDICATES FEW OR NO CLOUDS BELOW 12000 FEET WITH NO
SIGNIFICANT WEATHER AND/OR OBSTRUCTIONS TO VISIBILITY.

COZ001>005-013-030-031-061700-
...NORTHWEST COLORADO...

CITY           SKY/WX    TMP DP  RH WIND       PRES   REMARKS
CRAIG          CLOUDY    57  39  51 W15G22    30.07R
HAYDEN         PTSUNNY   57  36  44 SE3       30.06R
MEEKER         CLOUDY    58  40  51 E9        30.04F
MOUNT WERNER   NOT AVBL
STEAMBOAT SPGS FAIR      54  36  50 S3        30.07S
WALDEN         FAIR      59  28  31 CALM      30.14F
$$

COZ006>008-011-061700-
...WEST CENTRAL VALLEYS...

CITY           SKY/WX    TMP DP  RH WIND       PRES   REMARKS
GRAND JUNCTION FAIR      72  38  29 SE9       29.88F
MONTROSE       FAIR      67  36  31 E22G29    29.96F
EAGLE          PTSUNNY   55  32  41 SE8       30.10F
RIFLE          FAIR      63  39  41 E6        29.99F
DELTA          NOT AVBL
NUCLA          NOT AVBL
$$

COZ017>023-064>068-061700-
...SOUTHWEST COLORADO...

CITY           SKY/WX    TMP DP  RH WIND       PRES   REMARKS
DURANGO        FAIR      66  30  26 SE17G25   30.01F
CORTEZ         FAIR      68  29  23 W8        29.96F
PAGOSA SPRINGS FAIR      64  29  26 S9        30.11F
TELLURIDE      FAIR      56  27  32 S20G30    30.12S
WOLF CREEK PAS CLOUDY    39  28  65 S17G31    30.35F
$$

COZ009-010-012-014-032>034-037-058>063-061700-
...CENTRAL COLORADO...

CITY           SKY/WX    TMP DP  RH WIND       PRES   REMARKS
ASPEN          FAIR      53  37  54 E13       30.13F
BUENA VISTA    CLOUDY    53  31  42 CALM      30.19F
COPPER MTN     NOT AVBL
BERTHOUD PASS  FAIR      37  30  75 SE21G29   30.40R
COTTONWOOD PAS PTSUNNY   50  32  50 CALM      30.28F
GUNNISON       PTSUNNY   55  36  47 E12       30.15F
KREMMLING      PTSUNNY   59  32  36 CALM      30.12S
LEADVILLE      CLOUDY    45  28  51 S10       30.28R
SALIDA         PTSUNNY   52  36  53 CALM      30.25S
SUNLIGHT       FAIR      46  34  61 E6        30.27F
WILKERSON PASS PTSUNNY   50  27  40 SW9       30.37S
$$

COZ069>075-061700-
...SAN LUIS VALLEY/SANGRE DE CRISTO MOUNTAINS...

CITY           SKY/WX    TMP DP  RH WIND       PRES   REMARKS
ALAMOSA        FAIR      61  28  28 S5        30.13F
LA VETA PASS   FAIR      54  28  37 CALM      30.29S
SAGUACHE       PTSUNNY   59  30  33 S7        30.16F
$$

COZ035-036-038>040-061700-
...NORTHERN COLORADO FRONT RANGE...

CITY           SKY/WX    TMP DP  RH WIND       PRES   REMARKS
DENVER INTL AP PTSUNNY   66  38  35 SW7       29.99S
DMNS CITY PARK   N/A     69  39  32 E2G9      29.98F
AURORA         FAIR      68  39  33 SW5       30.01S
FRONT RANGE AP PTSUNNY   68  37  32 S10       30.01R
ERIE MUNI ARPT FAIR      65  39  37 N5        29.98S
BOULDER MUN AP FAIR      66  43  42 E3        29.98S
CENTENNIAL     PTSUNNY   69  36  29 CALM      30.01S
BROOMFIELD     MOSUNNY   66  39  37 E3        30.01S
FORT COLLINS   FAIR      63  48  59 N6        29.98F
LONGMONT       FAIR      67  43  41 CALM      29.99S
$$

COZ041-046-047-076>085-087-088-061700-
...PIKES PEAK/PALMER DIVIDE AND SOUTHERN FOOTHILLS...

CITY           SKY/WX    TMP DP  RH WIND       PRES   REMARKS
COLO. SPRINGS  FAIR      68  37  32 S10       30.06F
A. F. ACADEMY  MOSUNNY   70  36  28 S6        30.06F
SCHRIEVER AFB  NOT AVBL
ELLICOTT       FAIR     N/A N/A N/A SW9       30.05S
FALCON         NOT AVBL
FORT CARSON    FAIR      68  41  37 SE10      30.04S
LIMON          FAIR      63  48  58 VRB5      30.02F
MONUMENT HILL  FAIR      68  32  26 S14G20    30.10S
TRINIDAD       FAIR      64  28  25 VRB5      30.05F
$$

COZ042>045-048>051-090-091-061700-
...NORTHEAST COLORADO...

CITY           SKY/WX    TMP DP  RH WIND       PRES   REMARKS
GREELEY ARPT   FAIR      63  48  59 CALM      29.97F
AKRON          FAIR      64  47  53 SE6       29.97S
BURLINGTON     FAIR      68  46  45 S12       29.99S
WRAY           NOT AVBL
STERLING       FAIR      64  48  55 SE3       29.94F
HOLYOKE        NOT AVBL
FORT MORGAN    FAIR      62  47  57 S5        29.98R
$$

COZ086-089-092>099-061700-
...SOUTHEAST COLORADO...

CITY           SKY/WX    TMP DP  RH WIND       PRES   REMARKS
PUEBLO         FAIR      66  44  45 CALM      30.01R
LA JUNTA       FAIR      73  36  25 CALM      29.99S
LAMAR          FAIR      74  49  41 VRB3      29.97F
SPRINGFIELD      N/A     75  31  19 SW20G31   30.02S
$$




USA.gov is the U.S. government's official web portal to all federal, state and local government web resources and services.